Regional Weather Roundup
Issued by NWS

Home | Current Version | Previous Version | Graphics & Text | Print | Product List | Glossary On
Versions: 1 2 3 4 5 6 7 8 9 10 11 12 13 14 15 16 17 18 19 20 21 22 23 24 25 26 27 28 29 30 31 32 33 34 35 36 37 38 39 40 41 42 43 44 45 46 47 48 49 50
000
ASUS45 KBOU 240310
RWRCO

WEATHER ROUNDUP FOR COLORADO
NATIONAL WEATHER SERVICE DENVER/BOULDER CO
900 PM MDT MON APR 23 2018

NOTE: "FAIR" INDICATES FEW OR NO CLOUDS BELOW 12000 FEET WITH NO
SIGNIFICANT WEATHER AND/OR OBSTRUCTIONS TO VISIBILITY.

COZ001>005-013-030-031-240400-
...NORTHWEST COLORADO...

CITY           SKY/WX    TMP DP  RH WIND       PRES   REMARKS
CRAIG          FAIR      52  27  38 NW8       30.15R
HAYDEN         NOT AVBL
MEEKER         MOCLDY    57  29  34 N13       30.14R
RANGELY        FAIR      59  23  24 E8        30.10R
RABBIT EARS PA FAIR      34  32  93 W6        30.28F WCI  29
STEAMBOAT SPGS FAIR      48  36  61 E8        30.15R
WALDEN         CLOUDY    43  27  52 SE3       30.23R
$$

COZ006>008-011-240400-
...WEST CENTRAL VALLEYS...

CITY           SKY/WX    TMP DP  RH WIND       PRES   REMARKS
GRAND JUNCTION FAIR      69  28  21 W17       30.03R
MONTROSE       FAIR      65  17  15 NW9       30.06R
EAGLE          CLOUDY    56  30  37 SE7       30.13R
RIFLE          CLOUDY    66  28  24 W8        30.08R
DELTA          FAIR      73  19  13 NW25G35   30.01R
NUCLA          FAIR      66  23  19 NW16G26   30.11R
$$

COZ017>023-064>068-240400-
...SOUTHWEST COLORADO...

CITY           SKY/WX    TMP DP  RH WIND       PRES   REMARKS
DURANGO        FAIR      60  12  15 NW3       30.12R
CORTEZ         FAIR      58  15  18 CALM      30.08R
PAGOSA SPRINGS FAIR      55   5  13 W3        30.18R
TELLURIDE      MOCLDY    55  13  18 SW7G17    30.27R
WOLF CREEK PAS FAIR      36  12  38 SW13G18   30.44R
$$

COZ009-010-012-014-032>034-037-058>063-240400-
...CENTRAL COLORADO...

CITY           SKY/WX    TMP DP  RH WIND       PRES   REMARKS
ASPEN          FAIR      50  26  39 VRB3      30.15R
BUENA VISTA    FAIR      55  21  26 W13       30.18R
COPPER MTN     NOT AVBL
BERTHOUD PASS  FAIR      27  18  69 N6G22     30.39R WCI  20
COTTONWOOD PAS FAIR      54  19  26 NW7G18    30.28R
GUNNISON       FAIR      51  27  39 E8        30.17R
GRANBY         CLOUDY    46  33  60 NE6       30.24R
KREMMLING      CLOUDY    54  36  50 CALM      30.21R
LEADVILLE      FAIR      40  19  43 NE6       30.26R
MONARCH PASS   FAIR      37  18  44 W24       30.47R
SALIDA         FAIR      57  23  27 W8        30.21R
SUNLIGHT       MIX PCPN  36  25  64 W13G38    30.35R
WILKERSON PASS FAIR      43  12  28 W5        30.37R
$$

COZ069>075-240400-
...SAN LUIS VALLEY/SANGRE DE CRISTO MOUNTAINS...

CITY           SKY/WX    TMP DP  RH WIND       PRES   REMARKS
ALAMOSA        FAIR      53  21  28 S9        30.13R
DEL NORTE      FAIR      53  18  24 SW7       30.17R
LA VETA PASS   FAIR      45  23  42 S10G26    30.40S
SAGUACHE       NOT AVBL
$$

COZ035-036-038>040-240400-
...NORTHERN COLORADO FRONT RANGE...

CITY           SKY/WX    TMP DP  RH WIND       PRES   REMARKS
DENVER INTL AP MOCLDY    54  43  66 N21G30    30.10R
AURORA         MOCLDY    55  43  65 N23G31    30.11R
FRONT RANGE AP MOCLDY    59  41  51 NW14G28   30.10R
ERIE MUNI ARPT FAIR      55  39  56 N21G32    30.15R
BOULDER MUN AP FAIR      54  37  54 N7        30.10R
CENTENNIAL     MOCLDY    61  38  42 N9        30.09R
BROOMFIELD     MOCLDY    55  39  54 N20G35    30.13R
FORT COLLINS   FAIR      50  41  71 N26G36    30.13R
LONGMONT       LGT RAIN  57  40  53 N21G31    30.11R
$$

COZ041-046-047-076>085-087-088-240400-
...PIKES PEAK/PALMER DIVIDE AND SOUTHERN FOOTHILLS...

CITY           SKY/WX    TMP DP  RH WIND       PRES   REMARKS
COLO. SPRINGS  FAIR      57  37  47 E8        30.11R
A. F. ACADEMY  NOT AVBL
SCHRIEVER AFB  NOT AVBL
CHEYENNE MTN   MOCLDY    57  33  40 S8        30.08R
ELLICOTT         N/A    N/A N/A N/A SE12      30.08R
FALCON         FAIR      51  34  51 SE3       30.14R
FORT CARSON    FAIR      60  37  42 SE7       30.07R
LIMON          FAIR      50  40  68 SE7       30.07R
MONUMENT HILL  FAIR      46  34  61 S8        30.15R
CANON CITY     FAIR      59  41  51 N12G17    30.04R
WALSENBURG     NOT AVBL
TRINIDAD       FAIR      59  28  30 S8        30.04R
$$

COZ042>045-048>051-090-091-240400-
...NORTHEAST COLORADO...

CITY           SKY/WX    TMP DP  RH WIND       PRES   REMARKS
GREELEY ARPT   FAIR      49  42  77 N29G37    30.11R
AKRON          FAIR      56  43  61 SE14      30.02F
BURLINGTON     FAIR      50  41  71 SE12      30.04S
WRAY           FAIR      55  39  54 SE9       30.03R
YUMA           MOCLDY    52  41  66 SE8       30.03R
STERLING       NOT AVBL
HOLYOKE        FAIR      55  41  58 SE9       30.04R
FORT MORGAN    FAIR      57  43  59 N26G32    30.07R
$$

COZ086-089-092>099-240400-
...SOUTHEAST COLORADO...

CITY           SKY/WX    TMP DP  RH WIND       PRES   REMARKS
PUEBLO         FAIR      60  34  37 NE9       29.99R
LA JUNTA       FAIR      63  41  44 E9        29.98R
LAMAR          NOT AVBL
SPRINGFIELD      N/A     55  43  63 SE8       30.04R
$$




USA.gov is the U.S. government's official web portal to all federal, state and local government web resources and services.